EZY808X EGAA-LEPA

Flight info

Callsign EZY808X
Flight time 2h 32m
Altitude 37000
Route LISBO DCT RINGA DCT BABGU DCT ETIGA DCT INKOB Q39 NOMSU UQ4 WAL L151 KIDLI UN859 SOPIL DCT BALAN DCT EVPOK DCT NARAK DCT GAI DCT LOMRA DCT ROCAN DCT IBRAP DCT LUKEV DCT LORES LORES1R
Aircraft A320/M-SDE3FGHIRWY/LB1

Departure

Time 2026-05-06 12:42
Airport Belfast International Airport (EGAA)

Arrival

Time 2026-05-06 15:14
Airport Palma de Mallorca Airport (LEPA)
Time Latitude Longitude Altitude Speed Heading
2026-05-06 12:02 54.66071 -6.21551 272 ft 0 kts 335°
2026-05-06 12:30 54.66054 -6.21538 273 ft 3 kts 336°
2026-05-06 12:31 54.66033 -6.21522 276 ft 3 kts 334°
2026-05-06 12:31 54.66013 -6.21504 276 ft 3 kts 323°
2026-05-06 12:31 54.65999 -6.21479 273 ft 2 kts 298°
2026-05-06 12:31 54.65989 -6.21446 275 ft 3 kts 288°
2026-05-06 12:32 54.65985 -6.21409 275 ft 3 kts 269°
2026-05-06 12:32 54.65988 -6.21371 277 ft 3 kts 249°
2026-05-06 12:32 54.65997 -6.21336 275 ft 3 kts 240°
2026-05-06 12:32 54.66003 -6.21318 275 ft 0 kts 245°
2026-05-06 12:35 54.66003 -6.21320 275 ft 1 kts 245°
2026-05-06 12:35 54.65991 -6.21364 276 ft 7 kts 245°
2026-05-06 12:35 54.65962 -6.21471 272 ft 13 kts 245°
2026-05-06 12:36 54.65918 -6.21635 272 ft 15 kts 245°
2026-05-06 12:36 54.65871 -6.21808 272 ft 17 kts 245°
2026-05-06 12:36 54.65824 -6.21983 272 ft 17 kts 245°
2026-05-06 12:36 54.65775 -6.22193 272 ft 20 kts 257°
2026-05-06 12:37 54.65759 -6.22417 272 ft 18 kts 263°
2026-05-06 12:37 54.65745 -6.22631 272 ft 17 kts 266°
2026-05-06 12:37 54.65725 -6.22851 272 ft 20 kts 246°
2026-05-06 12:37 54.65650 -6.23042 272 ft 16 kts 233°
2026-05-06 12:38 54.65578 -6.23211 272 ft 19 kts 235°
2026-05-06 12:38 54.65487 -6.23351 272 ft 13 kts 202°
2026-05-06 12:38 54.65412 -6.23403 274 ft 8 kts 201°
2026-05-06 12:38 54.65355 -6.23392 272 ft 6 kts 155°
2026-05-06 12:39 54.65348 -6.23386 272 ft 0 kts 155°
2026-05-06 12:41 54.65326 -6.23368 272 ft 8 kts 153°
2026-05-06 12:41 54.65296 -6.23267 272 ft 12 kts 79°
2026-05-06 12:41 54.65336 -6.23112 272 ft 22 kts 65°
2026-05-06 12:41 54.65504 -6.22490 272 ft 94 kts 64°
2026-05-06 12:42 54.65868 -6.21140 273 ft 152 kts 65°
2026-05-06 12:42 54.66364 -6.19304 522 ft 178 kts 68°
2026-05-06 12:42 54.66892 -6.17285 1101 ft 191 kts 69°
2026-05-06 12:42 54.67419 -6.15119 1798 ft 200 kts 72°
2026-05-06 12:43 54.67930 -6.12834 2460 ft 210 kts 76°
2026-05-06 12:43 54.67965 -6.10268 2851 ft 225 kts 114°
2026-05-06 12:43 54.67063 -6.07947 3379 ft 241 kts 135°
2026-05-06 12:43 54.65851 -6.05889 4269 ft 247 kts 140°
2026-05-06 12:44 54.64570 -6.03846 5145 ft 254 kts 139°
2026-05-06 12:44 54.63273 -6.01712 6074 ft 259 kts 138°
2026-05-06 12:44 54.61993 -5.99488 6957 ft 265 kts 137°
2026-05-06 12:44 54.60726 -5.97189 7764 ft 271 kts 136°
2026-05-06 12:45 54.59427 -5.94761 8527 ft 280 kts 135°
2026-05-06 12:45 54.58104 -5.92235 9314 ft 287 kts 134°
2026-05-06 12:45 54.55347 -5.86909 10449 ft 316 kts 134°
2026-05-06 12:46 54.53827 -5.83976 10712 ft 339 kts 133°
2026-05-06 12:46 54.52227 -5.80886 11280 ft 350 kts 133°
2026-05-06 12:46 54.50598 -5.77739 11987 ft 355 kts 133°
2026-05-06 12:46 54.48942 -5.74542 12718 ft 360 kts 133°
2026-05-06 12:47 54.47264 -5.71312 13472 ft 364 kts 133°
2026-05-06 12:47 54.45568 -5.68055 14169 ft 368 kts 134°
2026-05-06 12:47 54.43843 -5.64757 14809 ft 373 kts 134°
2026-05-06 12:47 54.42103 -5.61434 15477 ft 376 kts 134°
2026-05-06 12:48 54.40346 -5.58074 16114 ft 380 kts 133°
2026-05-06 12:48 54.38748 -5.54427 16749 ft 385 kts 126°
2026-05-06 12:48 54.37221 -5.50631 17372 ft 389 kts 126°
2026-05-06 12:48 54.35669 -5.46787 17995 ft 393 kts 126°
2026-05-06 12:49 54.34103 -5.42921 18581 ft 397 kts 126°
2026-05-06 12:49 54.32518 -5.39018 19120 ft 401 kts 126°
2026-05-06 12:49 54.30914 -5.35088 19671 ft 404 kts 126°
2026-05-06 12:49 54.29295 -5.31131 20242 ft 407 kts 126°
2026-05-06 12:50 54.27656 -5.27150 20798 ft 410 kts 127°
2026-05-06 12:50 54.25954 -5.23285 21343 ft 413 kts 129°
2026-05-06 12:50 54.24142 -5.19444 21882 ft 416 kts 131°
2026-05-06 12:50 54.22273 -5.15640 22402 ft 420 kts 132°
2026-05-06 12:51 54.20374 -5.11831 22919 ft 423 kts 132°
2026-05-06 12:51 54.18461 -5.07980 23424 ft 426 kts 131°
2026-05-06 12:51 54.16545 -5.04089 23862 ft 429 kts 131°
2026-05-06 12:51 54.14630 -5.00160 24274 ft 432 kts 131°
2026-05-06 12:52 54.12711 -4.96192 24668 ft 434 kts 130°
2026-05-06 12:52 54.10788 -4.92208 25071 ft 436 kts 130°
2026-05-06 12:52 54.08855 -4.88206 25461 ft 438 kts 130°
2026-05-06 12:52 54.06910 -4.84194 25828 ft 441 kts 130°
2026-05-06 12:53 54.04945 -4.80156 26201 ft 443 kts 130°
2026-05-06 12:53 54.02994 -4.76077 26576 ft 445 kts 129°
2026-05-06 12:53 54.01088 -4.71897 26947 ft 448 kts 128°
2026-05-06 12:53 53.99215 -4.67657 27304 ft 450 kts 127°
2026-05-06 12:54 53.97344 -4.63364 27654 ft 452 kts 127°
2026-05-06 12:54 53.95464 -4.59056 27997 ft 454 kts 127°
2026-05-06 12:54 53.93570 -4.54752 28324 ft 456 kts 127°
2026-05-06 12:54 53.91677 -4.50494 28644 ft 459 kts 128°
2026-05-06 12:55 53.89734 -4.46169 28939 ft 461 kts 128°
2026-05-06 12:55 53.87779 -4.41848 29241 ft 463 kts 128°
2026-05-06 12:55 53.85835 -4.37483 29527 ft 465 kts 127°
2026-05-06 12:55 53.83946 -4.33009 29822 ft 467 kts 126°
2026-05-06 12:56 53.82103 -4.28464 30097 ft 469 kts 124°
2026-05-06 12:56 53.80281 -4.23880 30325 ft 471 kts 124°
2026-05-06 12:56 53.78449 -4.19267 30544 ft 472 kts 124°
2026-05-06 12:56 53.76609 -4.14682 30849 ft 471 kts 126°
2026-05-06 12:57 53.74753 -4.10122 31149 ft 471 kts 126°
2026-05-06 12:57 53.72883 -4.05588 31447 ft 470 kts 126°
2026-05-06 12:57 53.70999 -4.01065 31739 ft 470 kts 126°
2026-05-06 12:57 53.69116 -3.96559 32050 ft 469 kts 126°
2026-05-06 12:58 53.67259 -3.92118 32331 ft 469 kts 127°
2026-05-06 12:58 53.65385 -3.87631 32647 ft 468 kts 127°
2026-05-06 12:58 53.63513 -3.83143 32956 ft 467 kts 127°
2026-05-06 12:58 53.61646 -3.78664 33260 ft 467 kts 127°
2026-05-06 12:59 53.59781 -3.74196 33563 ft 466 kts 126°
2026-05-06 12:59 53.57915 -3.69732 33874 ft 466 kts 127°
2026-05-06 12:59 53.56051 -3.65283 34157 ft 465 kts 127°
2026-05-06 12:59 53.54183 -3.60837 34406 ft 465 kts 127°
2026-05-06 13:00 53.52308 -3.56394 34651 ft 465 kts 127°
2026-05-06 13:00 53.50436 -3.51970 34891 ft 465 kts 127°
2026-05-06 13:00 53.48558 -3.47533 35118 ft 465 kts 127°
2026-05-06 13:00 53.46818 -3.42947 35329 ft 466 kts 119°
2026-05-06 13:01 53.45455 -3.38011 35543 ft 467 kts 114°
2026-05-06 13:01 53.44191 -3.32984 35746 ft 467 kts 114°
2026-05-06 13:01 53.42935 -3.28039 35942 ft 468 kts 114°
2026-05-06 13:01 53.41654 -3.23027 36148 ft 468 kts 114°
2026-05-06 13:02 53.40172 -3.18183 36335 ft 466 kts 124°
2026-05-06 13:02 53.38265 -3.13812 36519 ft 464 kts 133°
2026-05-06 13:02 53.35984 -3.10009 36697 ft 462 kts 142°
2026-05-06 13:02 53.33409 -3.06832 36884 ft 460 kts 148°
2026-05-06 13:03 53.30759 -3.03829 37033 ft 460 kts 148°
2026-05-06 13:03 53.25457 -2.97803 37057 ft 461 kts 148°
2026-05-06 13:04 53.20145 -2.91768 37052 ft 460 kts 148°
2026-05-06 13:04 53.14849 -2.85772 37057 ft 460 kts 148°
2026-05-06 13:05 53.09585 -2.79829 37044 ft 460 kts 148°
2026-05-06 13:05 53.04275 -2.73859 37042 ft 460 kts 148°
2026-05-06 13:06 52.98970 -2.67912 37039 ft 460 kts 148°
2026-05-06 13:06 52.93662 -2.61991 37024 ft 460 kts 148°
2026-05-06 13:07 52.88355 -2.56082 37034 ft 459 kts 148°
2026-05-06 13:07 52.83058 -2.50188 37038 ft 459 kts 148°
2026-05-06 13:08 52.77790 -2.44366 37041 ft 458 kts 149°
2026-05-06 13:08 52.72482 -2.38512 37050 ft 458 kts 148°
2026-05-06 13:09 52.67182 -2.32676 37057 ft 457 kts 149°
2026-05-06 13:09 52.61891 -2.26867 37054 ft 457 kts 149°
2026-05-06 13:10 52.56630 -2.21107 37061 ft 457 kts 149°
2026-05-06 13:10 52.51327 -2.15328 37057 ft 457 kts 149°
2026-05-06 13:11 52.46024 -2.09561 37043 ft 457 kts 149°
2026-05-06 13:11 52.40715 -2.03811 37046 ft 457 kts 149°
2026-05-06 13:12 52.35439 -1.98101 37044 ft 457 kts 149°
2026-05-06 13:12 52.30124 -1.92363 37051 ft 457 kts 149°
2026-05-06 13:13 52.24818 -1.86652 37034 ft 456 kts 149°
2026-05-06 13:13 52.19513 -1.80966 37039 ft 455 kts 149°
2026-05-06 13:14 52.14245 -1.75348 37039 ft 455 kts 149°
2026-05-06 13:14 52.08953 -1.69712 37036 ft 455 kts 149°
2026-05-06 13:15 52.03664 -1.64080 37034 ft 455 kts 149°
2026-05-06 13:15 51.98363 -1.58454 37013 ft 454 kts 149°
2026-05-06 13:16 51.93063 -1.52863 37013 ft 454 kts 149°
2026-05-06 13:16 51.87761 -1.47292 37012 ft 454 kts 149°
2026-05-06 13:17 51.82465 -1.41735 37010 ft 454 kts 149°
2026-05-06 13:17 51.77086 -1.36431 37002 ft 451 kts 157°
2026-05-06 13:18 51.71184 -1.33105 37004 ft 449 kts 165°
2026-05-06 13:18 51.65222 -1.30101 37004 ft 449 kts 165°
2026-05-06 13:19 51.59263 -1.27067 37005 ft 449 kts 165°
2026-05-06 13:19 51.53342 -1.24068 36998 ft 449 kts 165°
2026-05-06 13:20 51.47439 -1.20722 36996 ft 451 kts 157°
2026-05-06 13:20 51.41735 -1.16521 36993 ft 451 kts 157°
2026-05-06 13:21 51.36030 -1.12319 36987 ft 451 kts 157°
2026-05-06 13:21 51.30321 -1.08129 36986 ft 451 kts 157°
2026-05-06 13:22 51.24608 -1.03947 36988 ft 451 kts 157°
2026-05-06 13:22 51.18890 -0.99773 36992 ft 452 kts 157°
2026-05-06 13:23 51.13211 -0.95637 36994 ft 452 kts 157°
2026-05-06 13:23 51.07493 -0.91490 36989 ft 452 kts 157°
2026-05-06 13:24 51.01767 -0.87347 36988 ft 452 kts 157°
2026-05-06 13:24 50.96038 -0.83219 36983 ft 452 kts 157°
2026-05-06 13:25 50.90304 -0.79093 36980 ft 452 kts 158°
2026-05-06 13:25 50.84538 -0.75062 36974 ft 451 kts 163°
2026-05-06 13:26 50.78532 -0.72195 36977 ft 451 kts 166°
2026-05-06 13:26 50.72475 -0.69638 36979 ft 451 kts 167°
2026-05-06 13:27 50.66422 -0.67042 36983 ft 451 kts 166°
2026-05-06 13:27 50.61405 -0.64800 36978 ft 451 kts 165°
2026-05-06 13:28 50.55367 -0.62074 36981 ft 451 kts 165°
2026-05-06 13:28 50.49326 -0.59375 36986 ft 451 kts 165°
2026-05-06 13:29 50.43279 -0.56693 36984 ft 451 kts 165°
2026-05-06 13:29 50.37275 -0.54036 36982 ft 451 kts 165°
2026-05-06 13:30 50.31234 -0.51367 36988 ft 451 kts 165°
2026-05-06 13:30 50.25184 -0.48707 36990 ft 451 kts 165°
2026-05-06 13:31 50.19135 -0.46055 36993 ft 451 kts 165°
2026-05-06 13:31 50.13083 -0.43398 36993 ft 451 kts 165°
2026-05-06 13:32 50.07036 -0.40747 36994 ft 451 kts 166°
2026-05-06 13:32 50.01027 -0.38141 36995 ft 451 kts 166°
2026-05-06 13:33 49.94974 -0.35517 36989 ft 451 kts 166°
2026-05-06 13:33 49.88925 -0.32901 36989 ft 451 kts 165°
2026-05-06 13:34 49.82862 -0.30278 36988 ft 452 kts 165°
2026-05-06 13:34 49.76803 -0.27671 36993 ft 452 kts 166°
2026-05-06 13:35 49.70742 -0.25062 36993 ft 452 kts 166°
2026-05-06 13:35 49.64706 -0.22470 36993 ft 452 kts 166°
2026-05-06 13:36 49.58638 -0.19876 36991 ft 452 kts 166°
2026-05-06 13:36 49.52565 -0.17289 36990 ft 452 kts 166°
2026-05-06 13:37 49.46493 -0.14707 36983 ft 453 kts 166°
2026-05-06 13:37 49.40456 -0.12145 36984 ft 453 kts 166°
2026-05-06 13:38 49.34371 -0.09563 36982 ft 453 kts 166°
2026-05-06 13:38 49.28291 -0.06997 36981 ft 453 kts 166°
2026-05-06 13:39 49.22201 -0.04434 36981 ft 453 kts 166°
2026-05-06 13:39 49.16158 -0.01900 36988 ft 453 kts 166°
2026-05-06 13:40 49.10076 0.00646 36978 ft 453 kts 166°
2026-05-06 13:40 49.03991 0.03193 36980 ft 453 kts 165°
2026-05-06 13:41 48.97910 0.05738 36982 ft 453 kts 166°
2026-05-06 13:41 48.91829 0.08264 36982 ft 453 kts 166°
2026-05-06 13:42 48.85741 0.10776 36986 ft 453 kts 166°
2026-05-06 13:42 48.79651 0.13296 36987 ft 453 kts 166°
2026-05-06 13:43 48.73566 0.15812 36987 ft 453 kts 166°
2026-05-06 13:43 48.67473 0.18317 36979 ft 453 kts 166°
2026-05-06 13:44 48.61376 0.20810 36974 ft 453 kts 166°
2026-05-06 13:44 48.55290 0.23308 36975 ft 453 kts 166°
2026-05-06 13:45 48.49240 0.25796 36973 ft 453 kts 166°
2026-05-06 13:45 48.40096 0.29513 36972 ft 454 kts 166°
2026-05-06 13:46 48.34001 0.31978 36977 ft 454 kts 166°
2026-05-06 13:46 48.27906 0.34455 36976 ft 454 kts 166°
2026-05-06 13:47 48.21802 0.36924 36980 ft 454 kts 166°
2026-05-06 13:47 48.15698 0.39386 36981 ft 454 kts 166°
2026-05-06 13:48 48.09593 0.41840 36985 ft 454 kts 166°
2026-05-06 13:48 48.03522 0.44276 36987 ft 454 kts 166°
2026-05-06 13:49 47.97416 0.46723 36983 ft 454 kts 166°
2026-05-06 13:49 47.91311 0.49164 36990 ft 454 kts 166°
2026-05-06 13:50 47.85210 0.51592 36985 ft 454 kts 166°
2026-05-06 13:50 47.79103 0.54010 36974 ft 454 kts 166°
2026-05-06 13:51 47.73038 0.56407 36964 ft 454 kts 166°
2026-05-06 13:51 47.66923 0.58823 36961 ft 454 kts 166°
2026-05-06 13:52 47.60807 0.61241 36965 ft 455 kts 166°
2026-05-06 13:52 47.54685 0.63649 36957 ft 455 kts 167°
2026-05-06 13:53 47.48571 0.66041 36956 ft 455 kts 166°
2026-05-06 13:53 47.42455 0.68438 36956 ft 455 kts 166°
2026-05-06 13:54 47.36334 0.70826 36957 ft 455 kts 166°
2026-05-06 13:54 47.30199 0.73206 36967 ft 456 kts 166°
2026-05-06 13:55 47.24066 0.75595 36949 ft 455 kts 166°
2026-05-06 13:55 47.17943 0.77977 36944 ft 455 kts 167°
2026-05-06 13:56 47.11861 0.80331 36943 ft 455 kts 167°
2026-05-06 13:56 47.05732 0.82700 36943 ft 455 kts 167°
2026-05-06 13:57 46.99610 0.85041 36948 ft 455 kts 167°
2026-05-06 13:57 46.93489 0.87388 36948 ft 454 kts 166°
2026-05-06 13:58 46.87380 0.89739 36939 ft 454 kts 166°
2026-05-06 13:58 46.81269 0.92079 36939 ft 454 kts 167°
2026-05-06 13:59 46.75160 0.94405 36936 ft 453 kts 167°
2026-05-06 13:59 46.69048 0.96727 36934 ft 454 kts 167°
2026-05-06 14:00 46.62969 0.99033 36938 ft 453 kts 167°
2026-05-06 14:00 46.56852 1.01343 36934 ft 453 kts 167°
2026-05-06 14:01 46.50738 1.03599 36931 ft 453 kts 168°
2026-05-06 14:01 46.44550 1.05310 36937 ft 453 kts 172°
2026-05-06 14:02 46.38316 1.06706 36936 ft 453 kts 172°
2026-05-06 14:02 46.32119 1.08152 36931 ft 453 kts 172°
2026-05-06 14:03 46.25910 1.09717 36932 ft 453 kts 171°
2026-05-06 14:03 46.19709 1.11314 36933 ft 453 kts 171°
2026-05-06 14:04 46.13523 1.12876 36929 ft 453 kts 172°
2026-05-06 14:04 46.07324 1.14427 36932 ft 453 kts 172°
2026-05-06 14:05 46.01094 1.15985 36931 ft 453 kts 172°
2026-05-06 14:05 45.94905 1.17533 36924 ft 453 kts 172°
2026-05-06 14:06 45.88701 1.19081 36927 ft 453 kts 172°
2026-05-06 14:06 45.82480 1.20623 36935 ft 452 kts 172°
2026-05-06 14:07 45.76294 1.22158 36907 ft 452 kts 172°
2026-05-06 14:07 45.70114 1.23692 36932 ft 452 kts 172°
2026-05-06 14:08 45.63945 1.25216 36935 ft 452 kts 172°
2026-05-06 14:08 45.57769 1.26743 36932 ft 452 kts 172°
2026-05-06 14:09 45.51558 1.28268 36926 ft 452 kts 172°
2026-05-06 14:09 45.45367 1.29774 36923 ft 452 kts 172°
2026-05-06 14:10 45.39168 1.31290 36922 ft 452 kts 172°
2026-05-06 14:10 45.32987 1.32798 36927 ft 452 kts 172°
2026-05-06 14:11 45.26809 1.34297 36936 ft 452 kts 172°
2026-05-06 14:11 45.20605 1.35806 36945 ft 452 kts 172°
2026-05-06 14:12 45.14389 1.37319 36944 ft 452 kts 173°
2026-05-06 14:12 45.08210 1.38820 36957 ft 452 kts 173°
2026-05-06 14:13 45.01992 1.40315 36963 ft 452 kts 173°
2026-05-06 14:13 44.95817 1.41807 36926 ft 452 kts 173°
2026-05-06 14:14 44.89640 1.43288 36916 ft 452 kts 173°
2026-05-06 14:14 44.83427 1.44778 36922 ft 452 kts 173°
2026-05-06 14:15 44.77265 1.46249 36926 ft 452 kts 173°
2026-05-06 14:15 44.71068 1.47727 36914 ft 452 kts 173°
2026-05-06 14:16 44.64859 1.49204 36919 ft 453 kts 173°
2026-05-06 14:16 44.58617 1.50682 36905 ft 453 kts 173°
2026-05-06 14:17 44.52439 1.52150 36916 ft 453 kts 173°
2026-05-06 14:17 44.46223 1.53622 36923 ft 453 kts 173°
2026-05-06 14:18 44.39991 1.55098 36933 ft 453 kts 174°
2026-05-06 14:18 44.33820 1.56557 36952 ft 452 kts 174°
2026-05-06 14:19 44.27622 1.58014 36960 ft 451 kts 174°
2026-05-06 14:19 44.21420 1.59468 36948 ft 450 kts 174°
2026-05-06 14:20 44.15256 1.60914 36956 ft 450 kts 174°
2026-05-06 14:20 44.10110 1.62123 36961 ft 450 kts 174°
2026-05-06 14:21 44.03927 1.63563 36961 ft 450 kts 174°
2026-05-06 14:21 43.97753 1.64995 36951 ft 449 kts 174°
2026-05-06 14:22 43.91628 1.66417 36955 ft 448 kts 174°
2026-05-06 14:22 43.85461 1.67851 36965 ft 448 kts 174°
2026-05-06 14:23 43.79303 1.69275 36960 ft 448 kts 175°
2026-05-06 14:23 43.73192 1.70682 36968 ft 447 kts 175°
2026-05-06 14:24 43.67047 1.72093 36971 ft 447 kts 175°
2026-05-06 14:24 43.60937 1.73491 36957 ft 446 kts 175°
2026-05-06 14:25 43.54785 1.74900 36966 ft 446 kts 175°
2026-05-06 14:25 43.48688 1.76302 36966 ft 446 kts 175°
2026-05-06 14:26 43.42561 1.77708 36970 ft 446 kts 175°
2026-05-06 14:26 43.36464 1.79101 36964 ft 445 kts 175°
2026-05-06 14:27 43.30381 1.80484 36975 ft 445 kts 175°
2026-05-06 14:27 43.24291 1.81870 36979 ft 445 kts 175°
2026-05-06 14:28 43.18175 1.83251 36976 ft 445 kts 176°
2026-05-06 14:28 43.12089 1.84619 36977 ft 444 kts 176°
2026-05-06 14:29 43.05976 1.86001 36987 ft 444 kts 175°
2026-05-06 14:29 42.99905 1.87377 36961 ft 444 kts 176°
2026-05-06 14:30 42.93791 1.88752 36982 ft 443 kts 176°
2026-05-06 14:30 42.87695 1.90120 36987 ft 443 kts 176°
2026-05-06 14:31 42.81628 1.91476 36974 ft 443 kts 176°
2026-05-06 14:31 42.75566 1.92826 36982 ft 442 kts 176°
2026-05-06 14:32 42.69520 1.94164 36980 ft 442 kts 176°
2026-05-06 14:32 42.63512 1.96031 36973 ft 446 kts 171°
2026-05-06 14:33 42.57501 1.98208 36950 ft 445 kts 171°
2026-05-06 14:33 42.51516 2.00365 36967 ft 445 kts 171°
2026-05-06 14:34 42.45567 2.02494 36966 ft 445 kts 171°
2026-05-06 14:34 42.39546 2.04641 36963 ft 446 kts 171°
2026-05-06 14:35 42.33561 2.06791 36947 ft 446 kts 171°
2026-05-06 14:35 42.27593 2.08927 36952 ft 445 kts 171°
2026-05-06 14:36 42.21592 2.11044 36944 ft 444 kts 171°
2026-05-06 14:36 42.15625 2.13149 36933 ft 445 kts 171°
2026-05-06 14:37 42.09655 2.15255 36945 ft 444 kts 171°
2026-05-06 14:37 42.03655 2.17366 36947 ft 444 kts 171°
2026-05-06 14:38 41.97700 2.19458 36938 ft 443 kts 172°
2026-05-06 14:38 41.91736 2.21557 36930 ft 443 kts 172°
2026-05-06 14:39 41.85781 2.23651 36940 ft 442 kts 172°
2026-05-06 14:39 41.79850 2.25726 36959 ft 442 kts 172°
2026-05-06 14:40 41.73888 2.27808 36931 ft 442 kts 172°
2026-05-06 14:40 41.67972 2.29874 36938 ft 441 kts 172°
2026-05-06 14:41 41.62054 2.31937 36957 ft 440 kts 172°
2026-05-06 14:41 41.56124 2.33999 36944 ft 439 kts 172°
2026-05-06 14:42 41.50205 2.36048 36924 ft 438 kts 172°
2026-05-06 14:42 41.44334 2.38081 36959 ft 438 kts 172°
2026-05-06 14:43 41.38411 2.40126 36963 ft 438 kts 172°
2026-05-06 14:43 41.32534 2.42158 36964 ft 438 kts 172°
2026-05-06 14:44 41.26657 2.44192 36950 ft 437 kts 173°
2026-05-06 14:45 41.17842 2.47209 36964 ft 436 kts 173°
2026-05-06 14:45 41.11975 2.49213 36962 ft 436 kts 173°
2026-05-06 14:46 41.06086 2.51237 36949 ft 436 kts 173°
2026-05-06 14:46 41.00204 2.53254 36957 ft 436 kts 173°
2026-05-06 14:47 40.94318 2.55263 36955 ft 436 kts 173°
2026-05-06 14:47 40.88478 2.57247 36960 ft 436 kts 173°
2026-05-06 14:48 40.82588 2.59240 36929 ft 436 kts 173°
2026-05-06 14:48 40.76707 2.61237 36942 ft 436 kts 173°
2026-05-06 14:49 40.70835 2.63225 36952 ft 436 kts 173°
2026-05-06 14:49 40.64947 2.65211 35944 ft 441 kts 173°
2026-05-06 14:49 40.61966 2.66212 35077 ft 442 kts 173°
2026-05-06 14:50 40.59019 2.67211 34184 ft 442 kts 173°
2026-05-06 14:50 40.56041 2.68227 33310 ft 440 kts 174°
2026-05-06 14:50 40.53061 2.69241 32309 ft 440 kts 174°
2026-05-06 14:50 40.50136 2.70429 31277 ft 450 kts 166°
2026-05-06 14:51 40.47279 2.72217 30236 ft 459 kts 159°
2026-05-06 14:51 40.44452 2.74257 28916 ft 463 kts 159°
2026-05-06 14:51 40.41609 2.76316 27783 ft 464 kts 158°
2026-05-06 14:51 40.38853 2.78326 27165 ft 453 kts 158°
2026-05-06 14:52 40.36109 2.80327 26356 ft 448 kts 158°
2026-05-06 14:52 40.33383 2.82306 25580 ft 444 kts 158°
2026-05-06 14:52 40.30685 2.84260 24823 ft 440 kts 158°
2026-05-06 14:52 40.28049 2.86162 24084 ft 437 kts 158°
2026-05-06 14:53 40.25359 2.88095 23307 ft 434 kts 157°
2026-05-06 14:53 40.22758 2.89963 22562 ft 430 kts 157°
2026-05-06 14:53 40.20151 2.91834 21892 ft 424 kts 157°
2026-05-06 14:53 40.17584 2.93680 21299 ft 418 kts 157°
2026-05-06 14:54 40.15086 2.95486 21145 ft 403 kts 157°
2026-05-06 14:54 40.12679 2.97231 21021 ft 388 kts 157°
2026-05-06 14:54 40.10372 2.98904 20874 ft 367 kts 157°
2026-05-06 14:54 40.08209 3.00455 20590 ft 345 kts 161°
2026-05-06 14:55 40.06016 3.01460 19992 ft 326 kts 175°
2026-05-06 14:55 40.03808 3.01753 19317 ft 314 kts 187°
2026-05-06 14:55 40.01679 3.01424 18630 ft 304 kts 198°
2026-05-06 14:55 39.99681 3.00603 17889 ft 300 kts 204°
2026-05-06 14:56 39.97714 2.99718 17101 ft 298 kts 203°
2026-05-06 14:56 39.95757 2.98847 16368 ft 297 kts 202°
2026-05-06 14:56 39.93810 2.97984 15674 ft 295 kts 202°
2026-05-06 14:56 39.91853 2.97118 15274 ft 296 kts 202°
2026-05-06 14:57 39.89938 2.96272 14985 ft 294 kts 202°
2026-05-06 14:57 39.88000 2.95417 14950 ft 295 kts 202°
2026-05-06 14:57 39.86030 2.94548 14943 ft 295 kts 202°
2026-05-06 14:57 39.84213 2.93460 14618 ft 289 kts 214°
2026-05-06 14:58 39.82663 2.91848 14162 ft 282 kts 228°
2026-05-06 14:58 39.81465 2.89843 13483 ft 280 kts 237°
2026-05-06 14:58 39.80382 2.87742 12754 ft 279 kts 237°
2026-05-06 14:58 39.79323 2.85718 12486 ft 263 kts 237°
2026-05-06 14:59 39.78306 2.83788 12009 ft 256 kts 237°
2026-05-06 14:59 39.77306 2.81891 11456 ft 253 kts 237°
2026-05-06 14:59 39.76312 2.80003 10859 ft 252 kts 237°
2026-05-06 14:59 39.75330 2.78136 10278 ft 253 kts 237°
2026-05-06 15:00 39.74339 2.76257 9734 ft 252 kts 237°
2026-05-06 15:00 39.73352 2.74388 9114 ft 250 kts 237°
2026-05-06 15:00 39.72371 2.72527 8473 ft 249 kts 237°
2026-05-06 15:00 39.71393 2.70678 7905 ft 248 kts 237°
2026-05-06 15:01 39.70420 2.68834 7397 ft 247 kts 236°
2026-05-06 15:01 39.69456 2.66995 6856 ft 245 kts 236°
2026-05-06 15:01 39.68494 2.65167 6303 ft 245 kts 236°
2026-05-06 15:01 39.67526 2.63335 5893 ft 246 kts 236°
2026-05-06 15:02 39.66560 2.61513 5581 ft 244 kts 236°
2026-05-06 15:02 39.65601 2.59704 5216 ft 243 kts 236°
2026-05-06 15:02 39.64646 2.57900 5010 ft 243 kts 236°
2026-05-06 15:02 39.63686 2.56083 5006 ft 245 kts 236°
2026-05-06 15:03 39.62740 2.54237 5006 ft 246 kts 239°
2026-05-06 15:03 39.61910 2.52300 5010 ft 246 kts 242°
2026-05-06 15:03 39.61104 2.50343 5007 ft 246 kts 242°
2026-05-06 15:03 39.60299 2.48381 5007 ft 245 kts 242°
2026-05-06 15:04 39.59497 2.46431 5009 ft 245 kts 242°
2026-05-06 15:04 39.58694 2.44477 5006 ft 246 kts 242°
2026-05-06 15:04 39.57890 2.42519 5005 ft 246 kts 242°
2026-05-06 15:04 39.57098 2.40585 5005 ft 246 kts 242°
2026-05-06 15:05 39.56292 2.38625 5006 ft 246 kts 242°
2026-05-06 15:05 39.55488 2.36672 5008 ft 246 kts 242°
2026-05-06 15:05 39.54682 2.34714 5002 ft 247 kts 242°
2026-05-06 15:05 39.53874 2.32744 5003 ft 248 kts 242°
2026-05-06 15:06 39.52845 2.30978 5002 ft 247 kts 218°
2026-05-06 15:06 39.51288 2.30097 5003 ft 248 kts 187°
2026-05-06 15:06 39.49600 2.30328 4794 ft 245 kts 160°
2026-05-06 15:06 39.48047 2.31248 4364 ft 245 kts 153°
2026-05-06 15:07 39.46533 2.32257 3998 ft 244 kts 152°
2026-05-06 15:07 39.45029 2.33272 3638 ft 243 kts 150°
2026-05-06 15:07 39.43797 2.34707 3299 ft 239 kts 121°
2026-05-06 15:07 39.43307 2.36725 3024 ft 236 kts 96°
2026-05-06 15:08 39.43192 2.38849 2998 ft 236 kts 92°
2026-05-06 15:08 39.43121 2.40864 2995 ft 219 kts 92°
2026-05-06 15:08 39.43057 2.42796 3000 ft 211 kts 92°
2026-05-06 15:08 39.42995 2.44683 3003 ft 209 kts 92°
2026-05-06 15:09 39.43143 2.46532 3031 ft 207 kts 72°
2026-05-06 15:09 39.43815 2.48171 3004 ft 207 kts 58°
2026-05-06 15:09 39.44577 2.49749 2999 ft 207 kts 58°
2026-05-06 15:09 39.45335 2.51330 3003 ft 205 kts 58°
2026-05-06 15:10 39.46047 2.52822 2999 ft 184 kts 58°
2026-05-06 15:10 39.46694 2.54181 2933 ft 172 kts 59°
2026-05-06 15:10 39.47313 2.55481 2763 ft 168 kts 59°
2026-05-06 15:10 39.47922 2.56761 2543 ft 166 kts 59°
2026-05-06 15:11 39.48525 2.58028 2343 ft 165 kts 59°
2026-05-06 15:11 39.49124 2.59289 2126 ft 165 kts 59°
2026-05-06 15:11 39.49722 2.60547 1894 ft 160 kts 59°
2026-05-06 15:11 39.50287 2.61735 1698 ft 150 kts 59°
2026-05-06 15:12 39.50818 2.62855 1504 ft 142 kts 59°
2026-05-06 15:12 39.51328 2.63929 1325 ft 138 kts 59°
2026-05-06 15:12 39.51829 2.64985 1137 ft 137 kts 59°
2026-05-06 15:12 39.52328 2.66033 939 ft 136 kts 58°
2026-05-06 15:13 39.52827 2.67058 749 ft 133 kts 58°
2026-05-06 15:13 39.53301 2.68067 658 ft 130 kts 60°
2026-05-06 15:13 39.53770 2.69062 503 ft 129 kts 59°
2026-05-06 15:13 39.54229 2.70032 302 ft 126 kts 58°
2026-05-06 15:14 39.54684 2.71004 123 ft 126 kts 58°
2026-05-06 15:14 39.55117 2.71921 41 ft 107 kts 58°
2026-05-06 15:14 39.55417 2.72556 38 ft 67 kts 58°
2026-05-06 15:14 39.55631 2.73009 38 ft 46 kts 59°
2026-05-06 15:15 39.55715 2.73259 38 ft 18 kts 88°
2026-05-06 15:15 39.55719 2.73375 38 ft 13 kts 88°
2026-05-06 15:15 39.55721 2.73481 38 ft 9 kts 89°
2026-05-06 15:15 39.55685 2.73528 38 ft 8 kts 181°
2026-05-06 15:16 39.55646 2.73486 38 ft 7 kts 241°
2026-05-06 15:16 39.55610 2.73406 38 ft 12 kts 238°
2026-05-06 15:16 39.55568 2.73317 38 ft 11 kts 238°
2026-05-06 15:16 39.55528 2.73233 38 ft 11 kts 238°
2026-05-06 15:17 39.55490 2.73154 38 ft 10 kts 238°
2026-05-06 15:17 39.55437 2.73041 38 ft 20 kts 238°
2026-05-06 15:17 39.55339 2.72999 36 ft 17 kts 146°
2026-05-06 15:17 39.55247 2.73028 38 ft 12 kts 214°
2026-05-06 15:18 39.55216 2.72967 38 ft 7 kts 239°
2026-05-06 15:18 39.55181 2.72950 38 ft 5 kts 164°
2026-05-06 15:18 39.55161 2.72958 37 ft 4 kts 162°
2026-05-06 15:18 39.55145 2.72965 38 ft 2 kts 161°
2026-05-06 15:19 39.55135 2.72969 36 ft 1 kts 161°
2026-05-06 15:19 39.55131 2.72971 37 ft 0 kts 161°
2026-05-06 15:25 39.55130 2.72971 38 ft 0 kts 161°